Content
SEND FEEDBACK

Daily
Averages
Monthly
Summary
United States of America

DES PLAINES, ILLINOIS


Home > North America > United States > Illinois
Elevation: 651 feet     Latitude: 42 00N     Longitude: 087 54W

WEATHER
 
SELECT A DAY
Number of Records: 195,010;   Date Range: 7/8/95 - 8/30/14
 
SHARE

PRINT THIS DATA

[ ← Previous Day ]
WEATHER ALMANAC - MAY 9, 2013
[ Next Day → ]
[ °C ]   °F
Weather ElementAverageHighLow
Temperature55.6 °F71.1 °F (1:52 pm)46 °F (10:52 pm)
Dewpoint47.4 °F59 °F (5:52 pm)44.1 °F (1:52 am)
Humidity75.8 %93 % (8:07 pm)49 % (11:52 am)
Barometer29.94 in29.98 in (10:52 am)29.90 in (5:52 pm)
Wind Speed4.3 mph11.5 mph (3:52 pm)
Wind Gust17.3 mph (3:52 pm)
Weather ElementAverage
Visibility8.6 mi
Wind DirectionNE (43.3 °)

Weather ElementTotal
Precipitation0.01 in
Heating Degree Days6.5 (Base 65)
Growing Degree Days8.6 (Base 50)
Averaged from 24 records on May 9, 2013
WEATHER CONDITIONS BREAKOUT
WIND DIRECTION BREAKOUT
WEATHER BY HOUR - MAY 9, 2013
[ °C ]   °F
Local TimeTemperatureDewpointHumidityBarometerVisibilityWind DirectionWind SpeedGust SpeedPrecipitationEventsConditions
1:52 AM53.1 °F44.1 °F71 %29.97 in10.0 miCalmClear
2:52 AM53.1 °F44.1 °F71 %29.96 in10.0 miCalmClear
3:52 AM53.1 °F45.0 °F74 %29.96 in10.0 miCalmClear
4:52 AM51.1 °F45.0 °F80 %29.96 in10.0 miCalmClear
5:52 AM52.0 °F46.0 °F80 %29.96 in10.0 miCalmClear
6:52 AM55.9 °F48.0 °F75 %29.97 in10.0 miCalmClear
7:52 AM60.1 °F48.9 °F67 %29.97 in10.0 miNorth (350°)3.5 mphMostly Cloudy
8:52 AM63.0 °F48.0 °F58 %29.97 in10.0 miEast (80°)4.6 mphMostly Cloudy
9:52 AM64.0 °F46.0 °F52 %29.97 in10.0 miNNE (30°)4.6 mphMostly Cloudy
10:52 AM64.0 °F46.0 °F52 %29.98 in10.0 miESE (110°)4.6 mphMostly Cloudy
11:52 AM68.0 °F48.0 °F49 %29.94 in10.0 miCalmClear
1:52 PM71.1 °F51.1 °F49 %29.93 in9.0 miNE (40°)3.5 mphScattered Clouds
3:52 PM70.0 °F55.9 °F61 %29.91 in7.0 miSSW (200°)11.5 mph17.3 mph0.00 inRainLight Rain
4:52 PM66.0 °F57.9 °F75 %29.91 in10.0 miVariable3.5 mph0.01 inOvercast
5:52 PM66.0 °F59.0 °F78 %29.90 in10.0 miCalm0.00 inOvercast
7:52 PM50.0 °F46.9 °F89 %29.91 in8.0 miNNE (30°)10.4 mph0.00 inRainLight Rain
8:07 PM48.2 °F46.4 °F93 %29.91 in7.0 miNNE (20°)6.9 mph0.00 inRainLight Rain
8:44 PM48.2 °F44.6 °F87 %29.92 in7.0 miNNE (20°)5.8 mph0.00 inRainLight Rain
9:11 PM46.4 °F44.6 °F93 %29.91 in6.0 miNorth (10°)9.2 mph0.00 inRainLight Rain
9:42 PM46.4 °F44.6 °F93 %29.92 in6.0 miNE (40°)5.8 mph0.00 inRainLight Rain
9:52 PM46.9 °F45.0 °F93 %29.92 in5.0 miNNE (20°)6.9 mph0.00 inRainLight Rain
9:59 PM46.4 °F44.6 °F93 %29.91 in6.0 miNNE (20°)8.1 mph0.00 inRainLight Rain
10:30 PM46.4 °F44.6 °F93 %29.90 in7.0 miNE (40°)5.8 mph0.00 inRainLight Rain
10:52 PM46.0 °F44.1 °F93 %29.90 in8.0 miNNE (30°)8.1 mph0.00 inRainLight Rain
Hourly data recorded from KPWK, located miles away from Des Plaines, Illinois







STORIES FROM OUR PARTNERS